Location: Saint Louis
(38.6272°N, 90.1978°W)
Time: 06:04:12
(UTC-05:00)

ISS - Pass Details

Date: 27 January 2013
Orbit: 402 x 403 km, 51.6° (Epoch: 28 June)

Event Time Altitude Azimuth Distance (km) Brightness Sun altitude
Exits shadow 05:46:41 45° 272° (W) 561 -3.1 -16.5°
Maximum altitude 05:47:23 58° 222° (SW) 477 -3.2 -16.3°
Drops below altitude 10° 05:50:35 10° 143° (SE) 1,458 0.2 -15.7°
Sets 05:52:41 0° 139° (SE) 2,322 1.4 -15.3°
